| time (UTC) | temp C | wind direction | speed KPH | gust KPH | rain 1hr cm | rain 24hr cm | rain mn cm | humidity % | barometer mb |
| 20260503020751 | 2 | 0.0 | 0.0 | 0.00 | 0.00 | 0.00 | 100 | 1019.2 | |
| 20260503015751 | 3 | 0.0 | 0.0 | 0.00 | 0.00 | 0.00 | 100 | 1019.3 | |
| 20260503014752 | 3 | 0.0 | 0.0 | 0.00 | 0.00 | 0.00 | 100 | 1019.3 | |
| 20260503013751 | 3 | 0.0 | 0.0 | 0.00 | 0.00 | 0.00 | 100 | 1019.3 | |
| 20260503011527 | 3 | 0.0 | 0.0 | 0.00 | 0.00 | 0.00 | 100 | 1019.3 | |
| 20260503010527 | 3 | 0.0 | 0.0 | 0.00 | 0.00 | 0.00 | 100 | 1019.3 | |
| 20260503005527 | 3 | 0.0 | 0.0 | 0.00 | 0.00 | 0.00 | 100 | 1019.4 | |
| 20260503004527 | 3 | 0.0 | 0.0 | 0.00 | 0.00 | 0.00 | 100 | 1019.5 | |
| 20260503003528 | 4 | 0.0 | 0.0 | 0.00 | 0.00 | 0.00 | 100 | 1019.5 | |
| 20260503002527 | 4 | 0.0 | 0.0 | 0.00 | 0.00 | 0.00 | 100 | 1019.6 | |
| 20260503001527 | 4 | 0.0 | 0.0 | 0.00 | 0.00 | 0.00 | 100 | 1019.6 | |
| 20260503000527 | 4 | 0.0 | 0.0 | 0.00 | 0.00 | 0.00 | 100 | 1019.7 | |
| 20260502233040 | 5 | 0.0 | 0.0 | 0.00 | 0.00 | 0.00 | 100 | 1019.9 | |
| 20260502232040 | 6 | 0.0 | 0.0 | 0.00 | 0.00 | 0.00 | 100 | 1019.9 | |
| 20260502231040 | 6 | 0.0 | 0.0 | 0.00 | 0.00 | 0.00 | 100 | 1020.0 | |
| 20260502224815 | 6 | 0.0 | 0.0 | 0.00 | 0.00 | 0.00 | 100 | 1020.2 | |
| 20260502222550 | 7 | 0.0 | 0.0 | 0.00 | 0.00 | 0.00 | 100 | 1020.2 | |
| 20260502221550 | 7 | 0.0 | 0.0 | 0.00 | 0.00 | 0.00 | 100 | 1020.2 | |
| 20260502220550 | 7 | 0.0 | 0.0 | 0.00 | 0.00 | 0.00 | 100 | 1020.2 | |
| 20260502215550 | 7 | 0.0 | 0.0 | 0.00 | 0.00 | 0.00 | 100 | 1020.2 | |
| 20260502214550 | 7 | 0.0 | 0.0 | 0.00 | 0.00 | 0.00 | 100 | 1020.3 | |
| 20260502213550 | 8 | 0.0 | 0.0 | 0.00 | 0.00 | 0.00 | 100 | 1020.2 | |
| 20260502212550 | 8 | 0.0 | 0.0 | 0.00 | 0.00 | 0.00 | 100 | 1020.3 | |
| 20260502211550 | 8 | 0.0 | 0.0 | 0.00 | 0.00 | 0.00 | 100 | 1020.3 | |
| 20260502210550 | 8 | 0.0 | 0.0 | 0.00 | 0.00 | 0.00 | 100 | 1020.4 | |
| 20260502205550 | 9 | 0.0 | 0.0 | 0.00 | 0.00 | 0.00 | 100 | 1020.4 | |
| 20260502204550 | 10 | 0.0 | 0.0 | 0.00 | 0.00 | 0.00 | 100 | 1020.4 | |
| 20260502203550 | 10 | 0.0 | 0.0 | 0.00 | 0.00 | 0.00 | 100 | 1020.5 | |
| 20260502202550 | 10 | 0.0 | 0.0 | 0.00 | 0.00 | 0.00 | 100 | 1020.6 | |
| 20260502201550 | 11 | 0.0 | 0.0 | 0.00 | 0.00 | 0.00 | 100 | 1020.6 | |
| 20260502200550 | 11 | 0.0 | 0.0 | 0.00 | 0.00 | 0.00 | 100 | 1020.7 | |
| 20260502194326 | 12 | 0.0 | 0.0 | 0.00 | 0.00 | 0.00 | 100 | 1020.8 | |
| 20260502193326 | 13 | 0.0 | 0.0 | 0.00 | 0.00 | 0.00 | 100 | 1020.7 | |
| 20260502192326 | 13 | 0.0 | 0.0 | 0.00 | 0.00 | 0.00 | 100 | 1020.7 | |
| 20260502191326 | 14 | 0.0 | 0.0 | 0.00 | 0.00 | 0.00 | 100 | 1020.7 | |
| 20260502190327 | 15 | 0.0 | 0.0 | 0.00 | 0.00 | 0.00 | 100 | 1020.6 | |
| 20260502185326 | 15 | 0.0 | 0.0 | 0.00 | 0.00 | 0.00 | 100 | 1020.5 | |
| 20260502184326 | 16 | 0.0 | 0.0 | 0.00 | 0.00 | 0.00 | 100 | 1020.5 | |
| 20260502183326 | 16 | 0.0 | 0.0 | 0.00 | 0.00 | 0.00 | 100 | 1020.4 | |
| 20260502181101 | 18 | 0.0 | 0.0 | 0.00 | 0.00 | 0.00 | 100 | 1020.1 | |
| 20260502164102 | 25 | 0.0 | 0.0 | 0.00 | 0.00 | 0.00 | 100 | 1020.5 | |
| 20260502163102 | 26 | 0.0 | 0.0 | 0.00 | 0.00 | 0.00 | 100 | 1020.5 | |
| 20260502162102 | 25 | 0.0 | 0.0 | 0.00 | 0.00 | 0.00 | 100 | 1020.7 | |
| 20260502161101 | 26 | 0.0 | 0.0 | 0.00 | 0.00 | 0.00 | 100 | 1020.8 | |
| 20260502151612 | 28 | 0.0 | 0.0 | 0.00 | 0.00 | 0.00 | 100 | 1021.4 | |
| 20260502150613 | 29 | 0.0 | 0.0 | 0.00 | 0.00 | 0.00 | 1021.5 | ||
| 20260502140125 | 30 | 0.0 | 0.0 | 0.00 | 0.00 | 0.00 | 100 | 1022.1 | |
| 20260502122901 | 28 | 0.0 | 0.0 | 0.00 | 0.00 | 0.00 | 100 | 1023.1 | |
| 20260502121901 | 27 | 0.0 | 0.0 | 0.00 | 0.00 | 0.00 | 100 | 1023.3 | |
| 20260502120901 | 28 | 0.0 | 0.0 | 0.00 | 0.00 | 0.00 | 100 | 1023.3 | |
| 20260502115901 | 25 | 0.0 | 0.0 | 0.00 | 0.00 | 0.00 | 100 | 1023.4 | |
| 20260502114900 | 24 | 0.0 | 0.0 | 0.00 | 0.00 | 0.00 | 100 | 1023.5 | |
| 20260502113900 | 23 | 0.0 | 0.0 | 0.00 | 0.00 | 0.00 | 100 | 1023.7 | |
| 20260502112900 | 25 | 0.0 | 0.0 | 0.00 | 0.00 | 0.00 | 100 | 1023.8 | |
| 20260502111901 | 24 | 0.0 | 0.0 | 0.00 | 0.00 | 0.00 | 100 | 1024.0 | |
| 20260502110901 | 23 | 0.0 | 0.0 | 0.00 | 0.00 | 0.00 | 100 | 1024.1 | |
| 20260502105900 | 23 | 0.0 | 0.0 | 0.00 | 0.00 | 0.00 | 100 | 1024.3 | |
| 20260502104901 | 23 | 0.0 | 0.0 | 0.00 | 0.00 | 0.00 | 100 | 1024.3 | |
| 20260502103900 | 23 | 0.0 | 0.0 | 0.00 | 0.00 | 0.00 | 100 | 1024.4 | |
| 20260502102900 | 23 | 0.0 | 0.0 | 0.00 | 0.00 | 0.00 | 100 | 1024.5 | |
| 20260502101901 | 23 | 0.0 | 0.0 | 0.00 | 0.00 | 0.00 | 100 | 1024.7 | |
| 20260502100901 | 21 | 0.0 | 0.0 | 0.00 | 0.00 | 0.00 | 100 | 1024.7 | |
| 20260502071149 | 14 | 0.0 | 0.0 | 0.00 | 0.00 | 0.00 | 100 | 1026.0 | |
| 20260502070149 | 13 | 0.0 | 0.0 | 0.00 | 0.00 | 0.00 | 100 | 1025.9 | |
| 20260502065149 | 12 | 0.0 | 0.0 | 0.00 | 0.00 | 0.00 | 100 | 1026.0 | |
| 20260502064150 | 12 | 0.0 | 0.0 | 0.00 | 0.00 | 0.00 | 100 | 1026.1 | |
| 20260502063149 | 11 | 0.0 | 0.0 | 0.00 | 0.00 | 0.00 | 100 | 1026.0 | |
| 20260502062149 | 10 | 0.0 | 0.0 | 0.00 | 0.00 | 0.00 | 100 | 1026.0 | |
| 20260502061149 | 9 | 0.0 | 0.0 | 0.00 | 0.00 | 0.00 | 100 | 1026.1 | |
| 20260502060149 | 8 | 0.0 | 0.0 | 0.00 | 0.00 | 0.00 | 100 | 1026.1 | |
| 20260502055149 | 7 | 0.0 | 0.0 | 0.00 | 0.00 | 0.00 | 100 | 1026.0 | |
| 20260502052926 | 5 | 0.0 | 0.0 | 0.00 | 0.00 | 0.00 | 100 | 1026.0 | |
| 20260502051925 | 3 | 0.0 | 0.0 | 0.00 | 0.00 | 0.00 | 100 | 1026.1 | |
| 20260502050925 | 2 | 0.0 | 0.0 | 0.00 | 0.00 | 0.00 | 100 | 1026.0 | |
| 20260502045925 | 2 | 0.0 | 0.0 | 0.00 | 0.00 | 0.00 | 100 | 1026.0 | |
| 20260502044925 | 1 | 0.0 | 0.0 | 0.00 | 0.00 | 0.00 | 100 | 1025.9 | |
| 20260502043925 | 1 | 0.0 | 0.0 | 0.00 | 0.00 | 0.00 | 100 | 1026.0 | |
| 20260502041701 | 1 | 0.0 | 0.0 | 0.00 | 0.00 | 0.00 | 100 | 1025.8 | |
| 20260502035438 | 1 | 0.0 | 0.0 | 0.00 | 0.00 | 0.00 | 100 | 1025.8 | |
| 20260502034438 | 1 | 0.0 | 0.0 | 0.00 | 0.00 | 0.00 | 6 | 1025.8 | |
| 20260502033438 | 1 | 0.0 | 0.0 | 0.00 | 0.00 | 0.00 | 17 | 1025.8 | |
| 20260502032437 | 1 | 0.0 | 0.0 | 0.00 | 0.00 | 0.00 | 100 | 1025.7 | |
| 20260502031438 | 1 | 0.0 | 0.0 | 0.00 | 0.00 | 0.00 | 100 | 1025.7 | |
| 20260502030438 | 1 | 0.0 | 0.0 | 0.00 | 0.00 | 0.00 | 100 | 1025.8 | |
| 20260502025438 | 1 | 0.0 | 0.0 | 0.00 | 0.00 | 0.00 | 100 | 1025.8 | |
| 20260502024438 | 2 | 0.0 | 0.0 | 0.00 | 0.00 | 0.00 | 100 | 1025.8 | |
| 20260502023438 | 1 | 0.0 | 0.0 | 0.00 | 0.00 | 0.00 | 100 | 1025.9 |